Regional Weather Roundup
Issued by NWS

Home | Current Version | Previous Version | Graphics & Text | Print | Product List | Glossary On
Versions: 1 2 3 4 5 6 7 8 9 10 11 12 13 14 15 16 17 18 19 20 21 22 23 24 25 26 27 28 29 30 31 32 33 34 35 36 37 38 39 40 41 42 43 44 45 46 47 48 49 50
066
ASUS43 KMKX 290800
RWRWI

WISCONSIN REGIONAL WEATHER ROUNDUP
NATIONAL WEATHER SERVICE MILWAUKEE/SULLIVAN WI
300 AM CDT MON MAY 29 2017

NOTE: "FAIR" INDICATES FEW OR NO CLOUDS BELOW 12,000 FEET WITH NO
SIGNIFICANT WEATHER AND/OR OBSTRUCTIONS TO VISIBILITY.

WIZ001-002-006>008-014>016-023>028-290900-
NORTHWEST WISCONSIN

CITY           SKY/WX    TMP DP  RH WIND       PRES   REMARKS
SUPERIOR ARPT  NOT AVBL
ASHLAND        CLOUDY    51  48  89 SW8       29.62S
HAYWARD        CLOUDY    51  47  86 SW5       29.66S
SIREN          CLOUDY    52  47  84 W7        29.68S
CUMBERLAND     CLOUDY    50  45  81 W8        29.68F
RICE LAKE      CLOUDY    52  47  84 SW6       29.70S
CHETEK         CLOUDY    52  47  83 NW6       29.68F
LADYSMITH      CLOUDY    52  49  90 SW5       29.68F
EAU CLAIRE     NOT AVBL
MENOMONIE      CLOUDY    53  49  87 CALM      29.69F
NEW RICHMOND   CLOUDY    52  49  90 W7        29.70S
OSCEOLA        LGT RAIN  53  53 100 W7        29.72F
$$

WIZ003>005-009-010-017-018-290900-
NORTH CENTRAL WISCONSIN

CITY           SKY/WX    TMP DP  RH WIND       PRES   REMARKS
MANITOWISH WTR CLOUDY    47  47 100 SW5       29.63S
ARBOR VITAE    CLOUDY    52  49  91 W5        29.63S
WOODRUFF       CLOUDY    52  49  91 W5        29.63S
RHINELANDER    PTCLDY    51  48  89 SW7       29.65F
EAGLE RIVER    PTCLDY    45  45  99 SW5       29.62F
LAND O LAKES   CLOUDY    50  49  95 CALM      29.64S
PHILLIPS       CLOUDY    49  47  95 W6        29.65S
TOMAHAWK       CLOUDY    49  47  92 CALM      29.67S
MEDFORD        CLOUDY    51  47  83 W5        29.67F
MERRILL        CLOUDY    51  49  95 W3        29.68R
$$

WIZ029-030-035-036-043>047-290900-
CENTRAL WISCONSIN

CITY           SKY/WX    TMP DP  RH WIND       PRES   REMARKS
WAUSAU         CLOUDY    52  48  86 W8        29.66S
MOSINEE        CLOUDY    50  48  93 SW6       29.69S
MARSHFIELD     PTCLDY    50  46  86 W6        29.68S
STEVENS POINT  CLOUDY    51  47  86 SW6       29.70R
WAUPACA        MOCLDY    55  49  80 SW5       29.70R
WAUTOMA        MOCLDY    51  49  92 CALM      29.71S
WISC RAPIDS    PTCLDY    51  49  92 SW5       29.70F
CAMP DOUGLAS   CLEAR     45  45  99 CALM      29.71S
$$

WIZ011>013-019>022-031-037>040-048>050-290900-
NORTHEAST WISCONSIN

CITY           SKY/WX    TMP DP  RH WIND       PRES   REMARKS
ANTIGO         CLOUDY    45  45 100 SW3       29.67F
SHAWANO        PTCLDY    55  48  77 W5        29.68S
OCONTO         CLEAR     53  47  82 W6        29.65F
STURGEON BAY   CLEAR     55  49  80 SW6       29.66F
GREEN BAY      CLEAR     56  49  77 SW6       29.68S
MANITOWOC      NOT AVBL
APPLETON       MOCLDY    54  43  66 SW8       29.68S
CLINTONVILLE   PTCLDY    52  45  76 W6        29.68S
OSHKOSH        MOCLDY    57  47  69 CALM      29.69S
$$

WIZ032>034-041-042-053>061-290900-
SOUTHWEST WISCONSIN

CITY           SKY/WX    TMP DP  RH WIND       PRES   REMARKS
LA CROSSE      CLEAR     57  47  69 CALM      29.72F
SPARTA         CLEAR     44  44  99 CALM      29.73S
VIROQUA        CLEAR     54  44  70 CALM      29.74S
BOSCOBEL       PTCLDY    54  47  77 SW5       29.75S
PRAIRIE DU CHI MOCLDY    54  45  71 CALM      29.76R
PLATTEVILLE    CLEAR     55  47  74 W8        29.77S
$$

WIZ056-057-062-063-064-067-068-290900-
SOUTH CENTRAL WISCONSIN

CITY           SKY/WX    TMP DP  RH WIND       PRES   REMARKS
REEDSBURG      CLEAR     47  47 100 CALM      29.72S
BARABOO/DELLS  CLEAR     47  43  85 SW3       29.71F
LONE ROCK      NOT AVBL
MINERAL POINT  CLEAR     55  45  67 W6        29.76S
MADISON        CLEAR     59  47  64 SW6       29.71F
MIDDLETON      CLEAR     57  46  65 CALM      29.73F
WATERTOWN      CLEAR     51  48  90 CALM      29.72S
MONROE         CLEAR     57  46  67 SW12      29.75F
JANESVILLE     CLEAR     55  50  82 CALM      29.74F
$$

WIZ051-052-058>065-066-070>072-290900-
SOUTHEAST WISCONSIN

CITY           SKY/WX    TMP DP  RH WIND       PRES   REMARKS
MILWAUKEE      CLEAR     59  49  69 SW7       29.73S
WAUKESHA       CLEAR     54  45  71 SW7       29.74F
MILWAUKEE/TIMM   N/A     54  45  71 SW5       29.74S
RACINE         CLEAR     56  47  71 SW7       29.75F
KENOSHA        CLEAR     58  49  72 SW6       29.74F
FOND DU LAC    MOCLDY    51  46  83 S3        29.71S
SHEBOYGAN      CLEAR     53  49  86 SW3       29.70F
WEST BEND      CLEAR     54  48  82 SW5       29.72S
JUNEAU         CLEAR     51  47  86 S3        29.73F
$$

LSZ147-162-290900-
LAKE SUPERIOR

STATION/POSITION TIME  TEMP    WIND        PRES    WAVE
                       AIR SEA DIR/SP/G            HT/PER
                 (UTC) (F)     (DEG/KT/KT) (MB)    (FT/S)
W MID LAKE BUOY  0650   42 37  160/  2/  2 1001.9F   0
DEVILS ISLAND    0700   48     240/ 16/ 18 1002.3F
PORT WING        0740   55     220/  5/ 11 1003.0S
SAXON HARBOR     0730   54     210/  7/ 11 1002.7S
$$

LMZ867-665-643>646-290900-
LAKE MICHIGAN

STATION/POSITION TIME  TEMP    WIND        PRES    WAVE
                       AIR SEA DIR/SP/G            HT/PER
                 (UTC) (F)     (DEG/KT/KT) (MB)    (FT/S)
CHAMBERS ISLAND  0740   54     220/  5/ 10 1003.4F
N MID LAKE BUOY  0650   41 41  210/  4/  6 1004.7R   1/ 3
NORTHPORT PIER   0740   48     310/  3/  4 1003.4F
SISTER BAY       0706   54     310/  7/  9   N/A
KEWAUNEE LAKESHO 0730   58     240/  5/  8 1004.5S
SHEBOYGAN LAKESH 0700   59     260/  9/ 10 1005.6R
PORT WASHINGTON  0740   59     270/  4/  5 1007.1S
ATWATER BUOY     0609   58     230/  8/  8 1006.7S
MILWAUKEE LAKESH 0730   62     230/  9/ 10   N/A
S MID LAKE BUOY  0650   53 47  260/ 10/ 10 1007.2R   1
KENOSHA   LAKESH 0700   62     240/  5/  9 1007.5
$$

TC  - TEMPERATURE IN CELSIUS
VSB - VISIBILITY IN STATUTE MILES
WCI - WIND CHILL INDEX
HX  - HEAT INDEX





USA.gov is the U.S. government's official web portal to all federal, state and local government web resources and services.